Location: Ahstedt
(52.2048°N, 10.1060°E)
Time: 21:19:39
(UTC+00:00)

Cosmos 407 Rocket - Pass Details

Date: 18 January 2026
Orbit: 738 x 782 km, 74.0° (Epoch: 16 February)

Event Time Altitude Azimuth Distance (km) Brightness Sun altitude
Rises 05:14:56 0° 191° (S) 3,174 6.7 -18.3°
Reaches altitude 10° 05:17:17 10° 188° (S) 2,259 6.0 -18.0°
Maximum altitude 05:22:18 59° 109° (ESE) 867 4.1 -17.2°
Drops below altitude 10° 05:27:26 10° 31° (NNE) 2,303 6.2 -16.5°
Sets 05:29:51 0° 28° (NNE) 3,240 6.9 -16.1°
